DECAYED

STARLINK-1843, 47133 (Decayed)

Orbit data source: Space-Track

STARLINK-1843, 47133 was a payload satellite owned by SpaceX/Seattle (US) in LEO that was launched on Wed, 25 Nov 2020 UTC via an FALCON 9 launch vehicle from the Air Force Eastern Test Range (AFETR). Payload-class satellites include a variety of spacecraft equipped with specific instruments for various scientific and technological missions. These include communications satellites like Starlink; space stations such as the ISS; scientific satellites like the Hubble; Earth observation satellites from companies like Planet Labs, Umbra, and HawkEye 360; GPS; miniature CubeSats for education and research; and military/defense satellites.

Not visible in the next 10 days
Identifier
47133, 2020-088M
Orbit
Decayed
Country
Flag of USUS
Related business
Manufacturer
SpaceX/Seattle
Mission
Decayed Commercial Communications
Bus & Motor
STARLINK, Unknown motor
Mass
260 kg wet, ~248 kg dry
Launch date (UTC)
2020-11-25 (6 years ago)
Launch vehicle
FALCON 9
Launch site
Air Force Eastern Test Range (AFETR)
Object type
Payload
Rocket body
Debris
Shape & HBR
Box + 1 Pan, 10.1 m
Radar Cross Section
13.562 m², Large (>1 m²)

Expand to show TLE details & history
Last TLE update: 3 months ago

TLE from 3 months ago
0 STARLINK-1843
1 47133U 20088M   26096.11196058  .10407534  12399-4  69859-3 0  9992
2 47133  53.0252 101.5462 0003106 290.4210  69.6503 16.40677409297049
Epoch: 2026-04-06T02:41Z
TLE epoch observation values (Epoch: 2026-04-06T02:41:13.394Z)
Latitude
0.00001°
Longitude
-133.16731°
Altitude
164.222 km
Speed
7.809 km/s
True Right ascension
06h 46m 11s
True Declination
0° 00' 00"
Sunlit
Object was in daylight at epoch
Visualization orbit readout
Latitude
Unknown
Longitude
Unknown
Altitude
Unknown
Speed
Unknown
Apparent Right ascension
Unknown
Apparent Declination
Unknown
Sunlit
N/A
Visualization observer readout
Local Sidereal Time
21:28:38
Azimuth
Unknown
Elevation
Unknown
Doppler factor
Unknown
Orbital elements
Apogee altitude
166.324 km
Perigee altitude
162.26 km
Semi-major axis
6,542.429 km
Eccentricity
0.00031
Inclination
53.0252°
RAAN
101.5462°
Arg. of periapsis
290.421°
True anomaly
69.68368°
Mean anomaly
69.6503°
Eccentric anomaly
69.66699°
Mean motion
4.10142 °/min
Orbital period
87.77 mins
BSTAR
0.00069859
Loading maneuver chart data...
Computing Atmospheric mass density...

Documentation

Showing up to 5 results
|